SALMON FALLS @ MILTON: From 08/03/2022 17:00 to 08/18/2022 04:00

Date STAGE [FT] FLOW [CFS] LAKE ELEVATION [FT] PRECIPITATION INCREMENT [IN] AIR TEMPERATURE [DEGF]
08/17/2022 22:00 2.53 -- 413.17 0.01 63.0
08/17/2022 21:00 2.54 -- 413.19 0.00 63.7
08/17/2022 20:00 2.53 23.3 413.18 0.00 63.9
08/17/2022 19:00 2.53 23.3 413.20 0.00 63.8
08/17/2022 18:00 2.53 23.3 413.17 0.01 64.1
08/17/2022 17:00 2.53 23.3 413.19 0.00 63.7
08/17/2022 16:00 2.53 23.3 413.21 0.01 63.7
08/17/2022 15:00 2.53 23.3 413.19 0.01 64.0
08/17/2022 14:00 2.54 24.1 413.18 0.02 64.0
08/17/2022 13:00 2.53 23.3 413.18 0.00 69.5
08/17/2022 12:00 2.54 24.1 413.20 0.00 70.5
08/17/2022 11:00 2.54 24.1 413.20 0.00 69.4
08/17/2022 10:00 2.53 23.3 413.20 0.00 67.7
08/17/2022 09:00 2.53 23.3 413.18 0.00 67.1
08/17/2022 08:00 2.54 24.1 413.19 0.00 66.3
08/17/2022 07:00 2.53 23.3 413.19 0.00 65.8
08/17/2022 06:00 2.53 23.3 413.19 0.00 65.6
08/17/2022 05:00 2.54 24.1 413.19 0.00 65.9
08/17/2022 04:00 2.53 23.3 413.19 0.00 65.8
08/17/2022 03:00 2.53 23.3 413.18 0.00 65.7
08/17/2022 02:00 2.53 23.3 413.18 0.00 65.7
08/17/2022 01:00 2.53 23.3 413.19 0.00 66.0
08/17/2022 00:00 2.53 23.3 413.18 0.00 65.9
08/16/2022 23:00 2.53 23.3 413.18 0.00 66.9
08/16/2022 22:00 2.53 23.3 413.19 0.00 67.7
08/16/2022 21:00 2.53 23.3 413.18 0.00 69.9
08/16/2022 20:00 2.54 24.1 413.19 0.00 73.7
08/16/2022 19:00 2.54 24.1 413.18 0.00 76.4
08/16/2022 18:00 2.54 24.1 413.20 0.00 76.9
08/16/2022 17:00 2.54 24.1 413.18 0.00 77.7
08/16/2022 16:00 2.54 24.1 413.18 0.00 79.1
08/16/2022 15:00 2.54 24.1 413.20 0.00 78.7
08/16/2022 14:00 2.54 24.1 413.20 0.00 78.5
08/16/2022 13:00 2.54 24.1 413.19 0.00 76.5
08/16/2022 12:00 2.55 24.9 413.20 0.00 75.4
08/16/2022 11:00 2.55 24.9 413.19 0.00 73.8
08/16/2022 10:00 2.55 24.9 413.20 0.00 70.3
08/16/2022 09:00 2.55 24.9 413.19 0.00 64.0
08/16/2022 08:00 2.55 24.9 413.19 0.00 58.4
08/16/2022 07:00 2.55 24.9 413.19 0.00 56.6
08/16/2022 06:00 2.54 24.1 413.20 0.00 56.5
08/16/2022 05:00 2.55 24.9 413.20 0.00 58.0
08/16/2022 04:00 2.55 24.9 413.20 0.00 59.3
08/16/2022 03:00 2.55 24.9 413.19 0.00 60.4
08/16/2022 02:00 2.55 24.9 413.20 0.00 62.7
08/16/2022 01:00 2.55 24.9 413.19 0.00 63.9
08/16/2022 00:00 2.55 24.9 413.20 0.00 64.6
08/15/2022 23:00 2.54 24.1 413.19 0.00 65.2
08/15/2022 22:00 2.54 24.1 413.19 0.00 67.5
08/15/2022 21:00 2.55 24.9 413.19 0.00 70.9
08/15/2022 20:00 2.55 24.9 413.19 0.00 74.7
08/15/2022 19:00 2.55 24.9 413.18 0.00 76.3
08/15/2022 18:00 2.55 24.9 413.18 0.00 78.5
08/15/2022 17:00 2.55 24.9 413.19 0.00 78.8
08/15/2022 16:00 2.55 24.9 413.19 0.00 80.6
08/15/2022 15:00 2.55 24.9 413.19 0.00 78.6
08/15/2022 14:00 2.55 24.9 413.19 0.00 77.9
08/15/2022 13:00 2.55 24.9 413.19 0.00 78.7
08/15/2022 12:00 2.55 24.9 413.20 0.00 76.5
08/15/2022 11:00 2.55 24.9 413.20 0.00 73.9
08/15/2022 10:00 2.55 24.9 413.20 0.00 69.3
08/15/2022 09:00 2.55 24.9 413.20 0.00 63.8
08/15/2022 08:00 2.55 24.9 413.20 0.00 59.1
08/15/2022 07:00 2.55 24.9 413.21 0.00 57.2
08/15/2022 06:00 2.55 24.9 413.20 0.00 57.4
08/15/2022 05:00 2.55 24.9 413.20 0.00 57.5
08/15/2022 04:00 2.55 24.9 413.20 0.00 58.7
08/15/2022 03:00 2.55 24.9 413.20 0.00 60.3
08/15/2022 02:00 2.55 24.9 413.20 0.00 60.9
08/15/2022 01:00 2.55 24.9 413.20 0.00 62.6
08/15/2022 00:00 2.55 24.9 413.20 0.00 63.6
08/14/2022 23:00 2.55 24.9 413.20 0.00 64.7
08/14/2022 22:00 2.55 24.9 413.20 0.00 67.4
08/14/2022 21:00 2.55 24.9 413.20 0.00 71.0
08/14/2022 20:00 2.55 24.9 413.19 0.00 75.9
08/14/2022 19:00 2.55 24.9 413.20 0.00 78.7
08/14/2022 18:00 2.55 24.9 413.20 0.00 79.3
08/14/2022 17:00 2.55 24.9 413.20 0.00 78.3
08/14/2022 16:00 2.55 24.9 413.20 0.00 77.7
08/14/2022 15:00 2.55 24.9 413.19 0.00 78.0
08/14/2022 14:00 2.55 24.9 413.20 0.00 75.5
08/14/2022 13:00 2.55 24.9 413.20 0.00 74.8
08/14/2022 12:00 2.55 24.9 413.20 0.00 74.9
08/14/2022 11:00 2.55 24.9 413.21 0.00 71.7
08/14/2022 10:00 2.55 24.9 413.20 0.00 68.4
08/14/2022 09:00 2.55 24.9 413.21 0.00 63.2
08/14/2022 08:00 2.55 24.9 413.20 0.00 58.8
08/14/2022 07:00 2.55 24.9 413.20 0.00 57.9
08/14/2022 06:00 2.54 24.1 413.21 0.00 57.8
08/14/2022 05:00 2.54 24.1 413.20 0.00 57.3
08/14/2022 04:00 2.54 24.1 413.20 0.00 58.8
08/14/2022 03:00 2.54 24.1 413.20 0.00 60.1
08/14/2022 02:00 2.54 24.1 413.21 0.00 61.0
08/14/2022 01:00 2.54 24.1 413.20 0.00 61.4
08/14/2022 00:00 2.54 24.1 413.20 0.00 60.9
08/13/2022 23:00 2.54 24.1 413.20 0.00 63.0
08/13/2022 22:00 2.54 24.1 413.20 0.00 66.7
08/13/2022 21:00 2.54 24.1 413.20 0.00 69.5
08/13/2022 20:00 2.54 24.1 413.20 0.00 70.5
08/13/2022 19:00 2.54 24.1 413.20 0.00 72.0
08/13/2022 18:00 2.54 24.1 413.20 0.00 72.8
08/13/2022 17:00 2.54 24.1 413.20 0.00 73.2
08/13/2022 16:00 2.54 24.1 413.21 0.00 73.0
08/13/2022 15:00 2.54 24.1 413.20 0.00 71.9
08/13/2022 14:00 2.55 24.9 413.21 0.00 71.1
08/13/2022 13:00 2.54 24.1 413.21 0.00 69.6
08/13/2022 12:00 2.54 24.1 413.20 0.00 67.4
08/13/2022 11:00 2.54 24.1 413.21 0.00 65.2
08/13/2022 10:00 2.54 24.1 413.20 0.00 62.6
08/13/2022 09:00 2.54 24.1 413.21 0.00 59.8
08/13/2022 08:00 2.54 24.1 413.20 0.00 57.7
08/13/2022 07:00 2.54 24.1 413.20 0.00 58.3
08/13/2022 06:00 2.54 24.1 413.20 0.00 58.3
08/13/2022 05:00 2.54 24.1 413.20 0.00 59.8
08/13/2022 04:00 2.54 24.1 413.20 0.00 59.1
08/13/2022 03:00 2.54 24.1 413.20 0.00 61.2
08/13/2022 02:00 2.54 24.1 413.20 0.00 62.5
08/13/2022 01:00 2.53 23.3 413.20 0.00 63.0
08/13/2022 00:00 2.54 24.1 413.21 0.00 63.5
08/12/2022 23:00 2.53 23.3 413.20 0.00 64.5
08/12/2022 22:00 2.54 24.1 413.21 0.00 66.0
08/12/2022 21:00 2.54 24.1 413.20 0.00 68.4
08/12/2022 20:00 2.53 23.3 413.20 0.00 69.6
08/12/2022 19:00 2.54 24.1 413.20 0.00 71.1
08/12/2022 18:00 2.54 24.1 413.20 0.00 73.7
08/12/2022 17:00 2.55 24.9 413.19 0.00 75.1
08/12/2022 16:00 2.55 24.9 413.20 0.00 74.8
08/12/2022 15:00 2.55 24.9 413.21 0.00 74.7
08/12/2022 14:00 2.54 24.1 413.21 0.00 72.6
08/12/2022 13:00 2.54 24.1 413.20 0.00 72.3
08/12/2022 12:00 2.54 24.1 413.21 0.00 71.6
08/12/2022 11:00 2.54 24.1 413.19 0.00 69.5
08/12/2022 10:00 2.54 24.1 413.21 0.00 68.9
08/12/2022 09:00 2.54 24.1 413.20 0.00 67.1
08/12/2022 08:00 2.54 24.1 413.21 0.00 65.3
08/12/2022 07:00 2.54 24.1 413.20 0.00 61.6
08/12/2022 06:00 2.54 24.1 413.20 0.00 61.5
08/12/2022 05:00 2.54 24.1 413.20 0.00 62.0
08/12/2022 04:00 2.54 24.1 413.19 0.00 62.6
08/12/2022 03:00 2.54 24.1 413.19 0.00 63.5
08/12/2022 02:00 2.54 24.1 413.20 0.00 64.0
08/12/2022 01:00 2.54 24.1 413.19 0.00 65.5
08/12/2022 00:00 2.53 23.3 413.20 0.00 67.5
08/11/2022 23:00 2.53 23.3 413.18 0.00 68.5
08/11/2022 22:00 2.53 23.3 413.19 0.00 69.1
08/11/2022 21:00 2.53 23.3 413.18 0.00 71.4
08/11/2022 20:00 2.53 23.3 413.18 0.00 73.9
08/11/2022 19:00 2.53 23.3 413.18 0.00 77.0
08/11/2022 18:00 2.53 23.3 413.18 0.00 77.2
08/11/2022 17:00 2.53 23.3 413.18 0.00 77.3
08/11/2022 16:00 2.53 23.3 413.18 0.00 76.8
08/11/2022 15:00 2.53 23.3 413.18 0.00 76.1
08/11/2022 14:00 2.53 23.3 413.18 0.00 75.5
08/11/2022 13:00 2.53 23.3 413.18 0.00 75.3
08/11/2022 12:00 2.53 23.3 413.18 0.00 72.3
08/11/2022 11:00 2.53 23.3 413.18 0.00 70.5
08/11/2022 10:00 2.53 23.3 413.19 0.00 66.3
08/11/2022 09:00 2.53 23.3 413.17 0.00 63.3
08/11/2022 08:00 2.53 23.3 413.18 0.00 64.0
08/11/2022 07:00 2.53 23.3 413.18 0.00 62.5
08/11/2022 06:00 2.53 23.3 413.18 0.00 62.7
08/11/2022 05:00 2.53 23.3 413.17 0.00 62.0
08/11/2022 04:00 2.53 23.3 413.17 0.00 61.6
08/11/2022 03:00 2.53 23.3 413.17 0.00 61.4
08/11/2022 02:00 2.53 23.3 413.17 0.00 62.0
08/11/2022 01:00 2.52 22.5 413.17 0.00 62.2
08/11/2022 00:00 2.52 22.5 413.17 0.00 63.9
08/10/2022 23:00 2.52 22.5 413.17 0.00 64.3
08/10/2022 22:00 2.52 22.5 413.16 0.00 65.2
08/10/2022 21:00 2.52 22.5 413.17 0.00 66.6
08/10/2022 20:00 2.52 22.5 413.16 0.00 68.7
08/10/2022 19:00 2.52 22.5 413.16 0.00 69.3
08/10/2022 18:00 2.52 22.5 413.15 0.00 70.0
08/10/2022 17:00 2.52 22.5 413.16 0.00 70.5
08/10/2022 16:00 2.52 22.5 413.16 0.00 73.5
08/10/2022 15:00 2.52 22.5 413.16 0.00 73.4
08/10/2022 14:00 2.52 22.5 413.16 0.00 70.2
08/10/2022 13:00 2.51 21.7 413.16 0.00 69.0
08/10/2022 12:00 2.51 21.7 413.16 0.00 66.2
08/10/2022 11:00 2.51 21.7 413.15 0.00 65.4
08/10/2022 10:00 2.51 21.7 413.15 0.00 63.5
08/10/2022 09:00 2.52 22.5 413.14 0.00 62.9
08/10/2022 08:00 2.52 22.5 413.15 0.00 62.8
08/10/2022 07:00 2.52 22.5 413.15 0.00 62.9
08/10/2022 06:00 2.52 22.5 413.15 0.00 63.4
08/10/2022 05:00 2.52 22.5 413.16 0.00 63.8
08/10/2022 04:00 2.51 21.7 413.14 0.00 64.7
08/10/2022 03:00 2.51 21.7 413.14 0.00 64.6
08/10/2022 02:00 2.52 22.5 413.14 0.00 64.6
08/10/2022 01:00 2.51 21.7 413.14 0.00 65.6
08/10/2022 00:00 2.51 21.7 413.14 0.00 65.5
08/09/2022 23:00 2.51 21.7 413.14 0.00 66.2
08/09/2022 22:00 2.51 21.7 413.13 0.00 66.4
08/09/2022 21:00 2.51 21.7 413.15 0.00 66.7
08/09/2022 20:00 2.52 22.5 413.13 0.00 67.5
08/09/2022 19:00 2.52 22.5 413.13 0.01 70.8
08/09/2022 18:00 2.52 22.5 413.14 0.00 84.7
08/09/2022 17:00 2.52 22.5 413.11 0.08 80.0
08/09/2022 16:00 2.51 21.7 413.14 0.01 81.0
08/09/2022 15:00 2.51 21.7 413.14 0.00 83.5
08/09/2022 14:00 2.51 21.7 413.11 0.00 84.7
08/09/2022 13:00 2.52 22.5 413.12 0.00 85.3
08/09/2022 12:00 2.51 21.7 413.10 0.00 82.7
08/09/2022 11:00 2.51 21.7 413.13 0.00 79.1
08/09/2022 10:00 2.51 21.7 413.12 0.00 77.5
08/09/2022 09:00 2.51 21.7 413.11 0.00 75.5
08/09/2022 08:00 2.51 21.7 413.10 0.00 73.8
08/09/2022 07:00 2.51 21.7 413.09 0.00 73.5
08/09/2022 06:00 2.51 21.7 413.12 0.00 70.3
08/09/2022 05:00 2.51 21.7 413.10 0.01 69.1
08/09/2022 04:00 2.51 21.7 413.10 0.01 68.8
08/09/2022 03:00 2.51 21.7 413.10 0.00 68.3
08/09/2022 02:00 2.51 21.7 413.10 0.00 69.5
08/09/2022 01:00 2.51 21.7 413.12 0.11 68.9
08/09/2022 00:00 2.51 21.7 413.09 0.00 69.5
08/08/2022 23:00 2.50 21.0 413.08 0.01 70.7
08/08/2022 22:00 2.50 21.0 413.08 0.12 71.7
08/08/2022 21:00 2.50 21.0 413.09 0.00 80.5
08/08/2022 20:00 2.50 21.0 413.08 0.00 86.9
08/08/2022 19:00 2.51 21.7 413.07 0.00 88.9
08/08/2022 18:00 2.51 21.7 413.08 0.00 89.2
08/08/2022 17:00 2.50 21.0 413.08 0.00 91.1
08/08/2022 16:00 2.51 21.7 413.07 0.00 92.4
08/08/2022 15:00 2.51 21.7 413.09 0.00 92.4
08/08/2022 14:00 2.51 21.7 413.04 0.00 90.9
08/08/2022 13:00 2.51 21.7 413.08 0.00 88.4
08/08/2022 12:00 2.51 21.7 413.07 0.00 87.5
08/08/2022 11:00 2.51 21.7 413.08 0.00 84.2
08/08/2022 10:00 2.51 21.7 413.08 0.00 81.9
08/08/2022 09:00 2.52 22.5 413.07 0.00 77.5
08/08/2022 08:00 2.51 21.7 413.08 0.00 73.4
08/08/2022 07:00 2.51 21.7 413.09 0.00 71.9
08/08/2022 06:00 2.51 21.7 413.07 0.00 73.4
08/08/2022 05:00 2.51 21.7 413.08 0.00 72.0
08/08/2022 04:00 2.51 21.7 413.08 0.00 72.4
08/08/2022 03:00 2.51 21.7 413.08 0.00 73.2
08/08/2022 02:00 2.51 21.7 413.08 0.00 74.2
08/08/2022 01:00 2.51 21.7 413.09 0.00 75.6
08/08/2022 00:00 2.51 21.7 413.08 0.00 77.3
08/07/2022 23:00 2.51 21.7 413.08 0.00 77.6
08/07/2022 22:00 2.50 21.0 413.08 0.00 80.0
08/07/2022 21:00 2.50 21.0 413.09 0.00 82.4
08/07/2022 20:00 2.51 21.7 413.07 0.00 85.6
08/07/2022 19:00 2.51 21.7 413.08 0.00 86.2
08/07/2022 18:00 2.50 21.0 413.07 0.00 83.4
08/07/2022 17:00 2.50 21.0 413.05 0.00 86.7
08/07/2022 16:00 2.50 21.0 413.09 0.00 83.1
08/07/2022 15:00 2.51 21.7 413.09 0.00 79.6
08/07/2022 14:00 2.51 21.7 413.06 0.02 77.3
08/07/2022 13:00 2.51 21.7 413.11 0.00 86.7
08/07/2022 12:00 2.50 21.0 413.10 0.00 83.9
08/07/2022 11:00 2.51 21.7 413.10 0.00 82.0
08/07/2022 10:00 2.50 21.0 413.10 0.00 80.6
08/07/2022 09:00 2.51 21.7 413.10 0.00 79.2
08/07/2022 08:00 2.51 21.7 413.11 0.00 74.7
08/07/2022 07:00 2.51 21.7 413.11 0.00 72.2
08/07/2022 06:00 2.51 21.7 413.12 0.00 72.5
08/07/2022 05:00 2.51 21.7 413.12 0.00 74.5
08/07/2022 04:00 2.50 21.0 413.11 0.00 74.5
08/07/2022 03:00 2.50 21.0 413.10 0.00 72.0
08/07/2022 02:00 2.50 21.0 413.09 0.00 72.2
08/07/2022 01:00 2.50 21.0 413.11 0.00 72.9
08/07/2022 00:00 2.50 21.0 413.11 0.00 73.7
08/06/2022 23:00 2.50 21.0 413.10 0.00 74.5
08/06/2022 22:00 2.50 21.0 413.11 0.00 75.9
08/06/2022 21:00 2.50 21.0 413.10 0.00 77.8
08/06/2022 20:00 2.50 21.0 413.10 0.00 79.4
08/06/2022 19:00 2.50 21.0 413.10 0.00 82.1
08/06/2022 18:00 2.50 21.0 413.09 0.00 83.1
08/06/2022 17:00 2.50 21.0 413.10 0.00 82.9
08/06/2022 16:00 2.50 21.0 413.10 0.00 87.0
08/06/2022 15:00 2.50 21.0 413.09 0.00 83.7
08/06/2022 14:00 2.50 21.0 413.08 0.00 89.5
08/06/2022 13:00 2.50 21.0 413.08 0.00 86.3
08/06/2022 12:00 2.50 21.0 413.07 0.00 83.8
08/06/2022 11:00 2.50 21.0 413.08 0.00 79.6
08/06/2022 10:00 2.49 20.3 413.08 0.00 77.5
08/06/2022 09:00 2.49 20.3 413.08 0.00 75.3
08/06/2022 08:00 2.49 20.3 413.08 0.00 73.2
08/06/2022 07:00 2.49 20.3 413.08 0.00 72.0
08/06/2022 06:00 2.49 20.3 413.08 0.00 72.6
08/06/2022 05:00 2.49 20.3 413.08 0.00 73.2
08/06/2022 04:00 2.49 20.3 413.08 0.00 73.1
08/06/2022 03:00 2.49 20.3 413.08 0.00 73.6
08/06/2022 02:00 2.48 19.6 413.08 0.00 73.7
08/06/2022 01:00 2.48 19.6 413.08 0.00 74.4
08/06/2022 00:00 2.48 19.6 413.08 0.00 74.5
08/05/2022 23:00 2.48 19.6 413.08 0.00 74.9
08/05/2022 22:00 2.48 19.6 413.08 0.00 75.4
08/05/2022 21:00 2.48 19.6 413.09 0.01 77.3
08/05/2022 20:00 2.48 19.6 413.04 0.02 79.4
08/05/2022 19:00 2.48 19.6 413.07 0.00 86.3
08/05/2022 18:00 2.48 19.6 413.06 0.00 88.6
08/05/2022 17:00 2.48 19.6 413.07 0.00 88.4
08/05/2022 16:00 2.48 19.6 413.06 0.00 87.4
08/05/2022 15:00 2.48 19.6 413.06 0.00 87.7
08/05/2022 14:00 2.48 19.6 413.07 0.00 83.4
08/05/2022 13:00 2.48 19.6 413.07 0.00 83.1
08/05/2022 12:00 2.48 19.6 413.07 0.00 82.0
08/05/2022 11:00 2.47 18.9 413.07 0.00 79.5
08/05/2022 10:00 2.47 18.9 413.07 0.00 76.8
08/05/2022 09:00 2.47 18.9 413.07 0.00 75.3
08/05/2022 08:00 2.47 18.9 413.07 0.00 73.0
08/05/2022 07:00 2.47 18.9 413.07 0.00 73.1
08/05/2022 06:00 2.46 18.2 413.06 0.00 73.4
08/05/2022 05:00 2.46 18.2 413.07 0.00 74.8
08/05/2022 04:00 2.46 18.2 413.07 0.00 75.0
08/05/2022 03:00 2.46 18.2 413.05 0.00 74.0
08/05/2022 02:00 2.46 18.2 413.07 0.00 73.8
08/05/2022 01:00 2.46 18.2 413.06 0.00 74.4
08/05/2022 00:00 2.46 18.2 413.07 0.00 76.7
08/04/2022 23:00 2.46 18.2 413.07 0.00 79.0
08/04/2022 22:00 2.46 18.2 413.07 0.00 83.3
08/04/2022 21:00 2.46 18.2 413.06 0.00 83.4
08/04/2022 20:00 2.46 18.2 413.06 0.00 89.5
08/04/2022 19:00 2.45 17.5 413.07 0.00 93.7
08/04/2022 18:00 2.45 17.5 413.06 0.00 95.5
08/04/2022 17:00 2.46 18.2 413.08 0.00 94.4
08/04/2022 16:00 2.46 18.2 413.06 0.00 92.9
08/04/2022 15:00 2.46 18.2 413.06 0.00 92.1
08/04/2022 14:00 2.46 18.2 413.06 0.00 90.7
08/04/2022 13:00 2.45 17.5 413.06 0.00 88.4
08/04/2022 12:00 2.45 17.5 413.07 0.00 85.8
08/04/2022 11:00 2.45 17.5 413.06 0.00 80.9
08/04/2022 10:00 2.45 17.5 413.07 0.00 77.4
08/04/2022 09:00 2.45 17.5 413.08 0.00 70.2
08/04/2022 08:00 2.44 16.9 413.07 0.00 68.0
08/04/2022 07:00 2.44 16.9 413.07 0.00 62.9
08/04/2022 06:00 2.44 16.9 413.07 0.00 62.6
08/04/2022 05:00 2.44 16.9 413.07 0.00 64.3
08/04/2022 04:00 2.44 16.9 413.07 0.00 64.0
08/04/2022 03:00 2.44 16.9 413.08 0.00 64.4
08/04/2022 02:00 2.44 16.9 413.08 0.00 65.5
08/04/2022 01:00 2.44 16.9 413.07 0.00 65.7
08/04/2022 00:00 2.44 16.9 413.07 0.00 67.4
08/03/2022 23:00 2.44 16.9 413.08 0.00 69.3
08/03/2022 22:00 -- -- -- -- --
08/03/2022 21:00 -- -- -- -- --
08/03/2022 20:00 -- -- -- -- --
08/03/2022 19:00 -- -- -- -- --
08/03/2022 18:00 -- -- -- -- --
08/03/2022 17:00 -- -- -- -- --